Flag for India Weather past 2 weeks in Thiruvananthapuram, Kerala, India

Now
88 °F

Passing clouds.


Feels Like: 100 °F
Forecast: 78 / 84 °F
Wind: 14 mph from West

Location: Thiruvananthapuram

Current Time: Jul 29, 2015 at 5:17:34 PM

Latest Report: Jul 29, 2015 at 4:40 PM


Visibility: 4 mi

Pressure: 29.77 "Hg

Humidity: 70%

Dew point: 77 °F

Location of ThiruvananthapuramLocation

Historic Weather in Thiruvananthapuram — Graph

°F

Thiruvananthapuram temperature yesterday

Maximum temperature yesterday: 90 °F (at 10:40 AM)
Minimum temperature yesterday: 75 °F (at 5:40 AM)
Average temperature yesterday: 83 °F

Past Weeks' High & Low Weather Summary

 TemperatureHumidityPressure
High90 °F (Jul 16, 1:40 PM)100% (Jul 16, 5:10 PM)29.89 "Hg (Jul 16, 5:10 PM)
Low68 °F (Jul 16, 5:10 PM)59% (Jul 28, 10:40 AM)29.65 "Hg (Jul 16, 2:40 PM)
Average82 °F81%29.78 "Hg
* Reported Jul 14 3:40 PM — Jul 29 4:10 PM, Thiruvananthapuram, Weather by CustomWeather, © 2015

Note: Actual official high and low records may vary slightly from our data, if they occured in-between our weather recording intervals... More about our weather records

Advertising

Thiruvananthapuram weather history for previous 24 hours

 ConditionsComfort  
Time TempWeatherWind HumidityBarometerVisibility
4:10 PM
Wed, Jul 29
88 °FPassing clouds.10 mph70%29.77 "Hg4 mi
3:40 PM88 °FPassing clouds.13 mph70%29.77 "Hg4 mi
3:10 PM86 °FPassing clouds.10 mph75%29.77 "Hg4 mi
2:40 PM86 °FPassing clouds.12 mph75%29.80 "Hg4 mi
2:10 PM86 °FPassing clouds.10 mph75%29.80 "Hg4 mi
1:40 PM86 °FPassing clouds.10 mph75%29.80 "Hg4 mi
12:40 PM86 °FPassing clouds.10 mph75%29.83 "Hg4 mi
12:10 PM86 °FHaze.12 mph75%29.83 "Hg3 mi
11:40 AM86 °FHaze.10 mph75%29.83 "Hg3 mi
10:40 AM86 °FScattered clouds.10 mph75%29.86 "Hg3 mi
9:40 AM84 °FScattered clouds.10 mph79%29.86 "Hg2 mi
9:10 AM84 °FScattered clouds.9 mph79%29.86 "Hg2 mi
8:10 AM82 °FHaze.8 mph79%29.86 "Hg2 mi
7:40 AM81 °FScattered clouds.7 mph84%29.83 "Hg2 mi
7:10 AM79 °FScattered clouds.6 mph84%29.86 "Hg2 mi
6:10 AM77 °FPassing clouds.9 mph89%29.83 "Hg2 mi
5:10 AM77 °FHaze.6 mph89%29.83 "Hg2 mi
4:10 AM77 °FHaze.6 mph89%29.83 "Hg2 mi
3:10 AM77 °FHaze.6 mph89%29.83 "Hg2 mi
1:40 AM77 °FHaze.5 mph89%29.83 "Hg2 mi
1:10 AM79 °FHaze.6 mph84%29.83 "Hg2 mi
12:40 AM79 °FHaze.6 mph84%29.86 "Hg2 mi
12:10 AM79 °FHaze.5 mph84%29.86 "Hg2 mi
11:40 PM
Tue, Jul 28
79 °FHaze.7 mph84%29.86 "Hg2 mi
11:10 PM79 °FHaze.6 mph84%29.89 "Hg2 mi
10:40 PM79 °FHaze.7 mph84%29.89 "Hg2 mi
10:10 PM81 °FHaze.8 mph79%29.89 "Hg2 mi
9:40 PM81 °FHaze.8 mph84%29.89 "Hg2 mi
9:10 PM81 °FHaze.8 mph84%N/A2 mi
8:40 PM81 °FHaze.9 mph84%29.86 "Hg2 mi
8:10 PM82 °FPassing clouds.9 mph79%29.83 "Hg2 mi
7:40 PM82 °FPassing clouds.10 mph79%29.83 "Hg2 mi
6:40 PM82 °FScattered clouds.10 mph79%29.80 "Hg2 mi
5:40 PM84 °FScattered clouds.15 mph79%29.80 "Hg3 mi
5:10 PM86 °FScattered clouds.14 mph70%29.77 "Hg3 mi
Weather by CustomWeather, © 2015

See weather overviewHow to use our weather pages